Time,TemperatureF,DewpointF,PressureIn,WindDirection,WindDirectionDegrees,WindSpeedMPH,WindSpeedGustMPH,Humidity,HourlyPrecipIn,Conditions,Clouds,dailyrainin,SoftwareType,DateUTC
2013-03-03 00:02:00,25.0,21.0,-100.00,West,278,4.0,14.0,82,0.00,,,-99.99,,2013-03-03 05:02:00,
2013-03-03 00:12:00,25.0,21.0,-100.00,WNW,289,5.0,14.0,84,0.00,,,-99.99,,2013-03-03 05:12:00,
2013-03-03 00:22:00,25.0,21.0,-100.00,WNW,289,6.0,14.0,84,0.00,,,-99.99,,2013-03-03 05:22:00,
2013-03-03 00:32:00,26.0,23.0,-100.00,WNW,283,5.0,14.0,85,0.00,,,-99.99,,2013-03-03 05:32:00,
2013-03-03 00:42:00,24.0,21.0,-100.00,WNW,285,4.0,14.0,85,0.00,,,-99.99,,2013-03-03 05:42:00,
2013-03-03 00:52:00,26.0,23.0,-100.00,NW,324,3.0,14.0,86,0.00,,,-99.99,,2013-03-03 05:52:00,
2013-03-03 01:02:00,28.0,25.0,-100.00,WNW,299,6.0,14.0,86,0.00,,,-99.99,,2013-03-03 06:02:00,
2013-03-03 01:11:00,27.0,25.0,-100.00,West,279,6.0,14.0,88,0.00,,,-99.99,,2013-03-03 06:11:00,
2013-03-03 01:22:00,27.0,25.0,-100.00,NW,306,6.0,14.0,86,0.00,,,-99.99,,2013-03-03 06:22:00,
2013-03-03 01:32:00,27.0,25.0,-100.00,NW,312,5.0,5.0,88,0.00,,,-99.99,,2013-03-03 06:32:00,
2013-03-03 01:42:00,27.0,25.0,-100.00,West,276,6.0,6.0,88,0.00,,,-99.99,,2013-03-03 06:42:00,
2013-03-03 01:52:00,27.0,25.0,-100.00,NW,306,4.0,6.0,88,0.00,,,-99.99,,2013-03-03 06:52:00,
2013-03-03 02:01:00,27.0,25.0,-100.00,West,278,5.0,6.0,88,0.00,,,-99.99,,2013-03-03 07:01:00,
2013-03-03 02:11:00,27.0,25.0,-100.00,NW,313,4.0,6.0,88,0.00,,,-99.99,,2013-03-03 07:11:00,
2013-03-03 02:21:00,26.0,25.0,-100.00,WSW,258,2.0,6.0,88,1.14,,,-99.99,,2013-03-03 07:21:00,
2013-03-03 02:32:00,26.0,25.0,-100.00,NW,306,2.0,6.0,88,0.00,,,-99.99,,2013-03-03 07:32:00,
2013-03-03 02:42:00,27.0,25.0,-100.00,WNW,292,2.0,6.0,88,1.14,,,-99.99,,2013-03-03 07:42:00,
2013-03-03 02:51:00,27.0,25.0,-100.00,West,275,2.0,6.0,88,1.14,,,-99.99,,2013-03-03 07:51:00,
2013-03-03 03:01:00,27.0,25.0,-100.00,WNW,300,2.0,6.0,88,0.00,,,-99.99,,2013-03-03 08:01:00,
2013-03-03 03:11:00,27.0,25.0,-100.00,NW,310,3.0,6.0,89,1.14,,,-99.99,,2013-03-03 08:11:00,
2013-03-03 03:21:00,26.0,25.0,-100.00,NW,317,1.0,6.0,89,1.14,,,-99.99,,2013-03-03 08:21:00,
2013-03-03 03:32:00,27.0,25.0,-100.00,WSW,248,0.0,6.0,89,1.14,,,-99.99,,2013-03-03 08:32:00,
2013-03-03 03:42:00,27.0,25.0,-100.00,SW,225,2.0,6.0,89,1.14,,,-99.99,,2013-03-03 08:42:00,
2013-03-03 03:53:00,27.0,25.0,-100.00,West,280,3.0,6.0,89,1.14,,,-99.99,,2013-03-03 08:53:00,
2013-03-03 04:02:00,27.0,25.0,-100.00,WSW,247,3.0,6.0,89,1.14,,,-99.99,,2013-03-03 09:02:00,
2013-03-03 04:12:00,27.0,25.0,-100.00,SSW,193,4.0,6.0,89,1.14,,,-99.99,,2013-03-03 09:12:00,
2013-03-03 04:21:00,26.0,25.0,-100.00,WSW,241,5.0,6.0,89,0.00,,,-99.99,,2013-03-03 09:21:00,
2013-03-03 04:32:00,26.0,25.0,-100.00,WNW,290,6.0,8.0,90,0.00,,,-99.99,,2013-03-03 09:32:00,
2013-03-03 04:42:00,26.0,25.0,-100.00,WNW,290,6.0,8.0,90,1.14,,,-99.99,,2013-03-03 09:42:00,
2013-03-03 04:51:00,26.0,25.0,-100.00,SSW,196,7.0,10.0,90,1.14,,,-99.99,,2013-03-03 09:51:00,
2013-03-03 05:01:00,26.0,25.0,-100.00,South,190,6.0,10.0,91,0.00,,,-99.99,,2013-03-03 10:01:00,
2013-03-03 05:12:00,26.0,25.0,-100.00,West,262,5.0,10.0,90,1.14,,,-99.99,,2013-03-03 10:12:00,
2013-03-03 05:21:00,26.0,25.0,-100.00,WSW,256,6.0,10.0,91,0.00,,,-99.99,,2013-03-03 10:21:00,
2013-03-03 05:32:00,26.0,25.0,-100.00,SW,216,4.0,10.0,91,0.00,,,-99.99,,2013-03-03 10:32:00,
2013-03-03 05:42:00,26.0,25.0,-100.00,NNW,327,6.0,10.0,91,1.14,,,-99.99,,2013-03-03 10:42:00,
2013-03-03 05:52:00,27.0,27.0,-100.00,West,265,4.0,10.0,91,1.14,,,-99.99,,2013-03-03 10:52:00,
2013-03-03 06:01:00,27.0,25.0,-100.00,SW,227,3.0,10.0,91,1.14,,,-99.99,,2013-03-03 11:01:00,
2013-03-03 06:11:00,27.0,25.0,-100.00,WSW,248,2.0,10.0,90,1.14,,,-99.99,,2013-03-03 11:11:00,
2013-03-03 06:22:00,26.0,25.0,-100.00,West,266,4.0,10.0,90,0.00,,,-99.99,,2013-03-03 11:22:00,
2013-03-03 06:32:00,26.0,25.0,-100.00,West,261,4.0,10.0,91,1.14,,,-99.99,,2013-03-03 11:32:00,
2013-03-03 06:42:00,26.0,25.0,-100.00,WSW,252,4.0,10.0,90,1.14,,,-99.99,,2013-03-03 11:42:00,
2013-03-03 06:52:00,26.0,25.0,-100.00,SW,223,2.0,10.0,91,1.14,,,-99.99,,2013-03-03 11:52:00,
2013-03-03 07:02:00,26.0,25.0,-100.00,SW,234,1.0,10.0,91,0.00,,,-99.99,,2013-03-03 12:02:00,
2013-03-03 07:11:00,26.0,25.0,-100.00,South,187,4.0,10.0,90,1.14,,,-99.99,,2013-03-03 12:11:00,
2013-03-03 07:22:00,26.0,25.0,-100.00,WSW,245,4.0,10.0,91,1.14,,,-99.99,,2013-03-03 12:22:00,
2013-03-03 07:32:00,26.0,25.0,-100.00,WSW,248,5.0,10.0,91,1.14,,,-99.99,,2013-03-03 12:32:00,
2013-03-03 07:43:00,26.0,25.0,-100.00,West,276,3.0,10.0,91,1.14,,,-99.99,,2013-03-03 12:43:00,
2013-03-03 07:52:00,27.0,25.0,-100.00,SSW,201,3.0,10.0,91,1.14,,,-99.99,,2013-03-03 12:52:00,
2013-03-03 08:02:00,24.0,23.0,-100.00,SW,225,3.0,10.0,90,1.14,,,-99.99,,2013-03-03 13:02:00,
2013-03-03 08:11:00,26.0,25.0,-100.00,SW,228,3.0,10.0,91,1.14,,,-99.99,,2013-03-03 13:11:00,
2013-03-03 08:22:00,24.0,23.0,-100.00,South,190,4.0,10.0,90,1.14,,,-99.99,,2013-03-03 13:22:00,
2013-03-03 08:32:00,25.0,23.0,-100.00,SSW,192,4.0,10.0,90,4.53,,,-99.99,,2013-03-03 13:32:00,
2013-03-03 08:42:00,25.0,23.0,-100.00,SW,220,4.0,10.0,90,7.36,,,-99.99,,2013-03-03 13:42:00,
2013-03-03 08:52:00,25.0,23.0,-100.00,SW,214,6.0,10.0,90,2.83,,,-99.99,,2013-03-03 13:52:00,
2013-03-03 09:02:00,25.0,23.0,-100.00,SSW,193,4.0,10.0,90,2.83,,,-99.99,,2013-03-03 14:02:00,
2013-03-03 09:11:00,25.0,23.0,-100.00,SW,220,3.0,10.0,90,1.14,,,-99.99,,2013-03-03 14:11:00,
2013-03-03 09:21:00,24.0,23.0,-100.00,West,264,6.0,10.0,90,2.83,,,-99.99,,2013-03-03 14:21:00,
2013-03-03 09:32:00,24.0,23.0,-100.00,SW,232,5.0,10.0,90,4.53,,,-99.99,,2013-03-03 14:32:00,
2013-03-03 09:42:00,24.0,23.0,-100.00,SW,218,5.0,10.0,90,4.53,,,-99.99,,2013-03-03 14:42:00,
2013-03-03 09:52:00,24.0,23.0,-100.00,WSW,247,6.0,10.0,90,2.83,,,-99.99,,2013-03-03 14:52:00,
2013-03-03 10:02:00,25.0,23.0,-100.00,SW,214,5.0,10.0,90,1.14,,,-99.99,,2013-03-03 15:02:00,
2013-03-03 10:11:00,25.0,23.0,-100.00,SW,234,3.0,10.0,90,1.14,,,-99.99,,2013-03-03 15:11:00,
2013-03-03 10:22:00,25.0,23.0,-100.00,WSW,256,5.0,10.0,90,4.53,,,-99.99,,2013-03-03 15:22:00,
2013-03-03 10:32:00,25.0,23.0,-100.00,SW,221,6.0,10.0,90,1.14,,,-99.99,,2013-03-03 15:32:00,
2013-03-03 10:42:00,25.0,23.0,-100.00,WSW,247,5.0,10.0,90,2.83,,,-99.99,,2013-03-03 15:42:00,
2013-03-03 10:52:00,25.0,23.0,-100.00,West,273,6.0,10.0,89,1.14,,,-99.99,,2013-03-03 15:52:00,
2013-03-03 11:02:00,25.0,23.0,-100.00,SSE,165,4.0,10.0,89,1.14,,,-99.99,,2013-03-03 16:02:00,
2013-03-03 11:12:00,26.0,23.0,-100.00,WSW,240,5.0,10.0,89,0.00,,,-99.99,,2013-03-03 16:12:00,
2013-03-03 11:22:00,25.0,23.0,-100.00,WSW,258,6.0,10.0,88,1.14,,,-99.99,,2013-03-03 16:22:00,
2013-03-03 11:32:00,25.0,23.0,-100.00,SSW,207,5.0,10.0,88,0.00,,,-99.99,,2013-03-03 16:32:00,
2013-03-03 11:42:00,26.0,23.0,-100.00,SW,234,6.0,10.0,86,2.83,,,-99.99,,2013-03-03 16:42:00,
2013-03-03 11:52:00,26.0,23.0,-100.00,SSE,153,4.0,10.0,88,6.22,,,-99.99,,2013-03-03 16:52:00,
2013-03-03 12:01:00,26.0,23.0,-100.00,SW,231,6.0,10.0,86,10.79,,,-99.99,,2013-03-03 17:01:00,
2013-03-03 12:11:00,26.0,23.0,-100.00,SSE,165,5.0,10.0,88,1.14,,,-99.99,,2013-03-03 17:11:00,
2013-03-03 12:22:00,26.0,23.0,-100.00,SSW,199,6.0,10.0,88,6.22,,,-99.99,,2013-03-03 17:22:00,
2013-03-03 12:32:00,26.0,25.0,-100.00,SSW,201,4.0,10.0,88,6.22,,,-99.99,,2013-03-03 17:32:00,
2013-03-03 12:42:00,26.0,25.0,-100.00,WSW,251,5.0,10.0,88,10.79,,,-99.99,,2013-03-03 17:42:00,
2013-03-03 12:52:00,26.0,23.0,-100.00,SW,235,6.0,10.0,86,4.53,,,-99.99,,2013-03-03 17:52:00,
2013-03-03 13:02:00,26.0,23.0,-100.00,SW,232,8.0,12.0,85,1.14,,,-99.99,,2013-03-03 18:02:00,
2013-03-03 13:11:00,27.0,23.0,-100.00,SW,221,6.0,12.0,85,1.14,,,-99.99,,2013-03-03 18:11:00,
2013-03-03 13:21:00,27.0,23.0,-100.00,West,271,6.0,12.0,85,1.14,,,-99.99,,2013-03-03 18:21:00,
2013-03-03 13:32:00,26.0,23.0,-100.00,South,183,7.0,12.0,84,2.83,,,-99.99,,2013-03-03 18:32:00,
2013-03-03 13:42:00,26.0,23.0,-100.00,SW,221,6.0,12.0,84,2.83,,,-99.99,,2013-03-03 18:42:00,
2013-03-03 13:52:00,26.0,23.0,-100.00,SW,234,6.0,12.0,82,1.14,,,-99.99,,2013-03-03 18:52:00,
2013-03-03 14:02:00,27.0,23.0,-100.00,West,269,4.0,12.0,82,1.14,,,-99.99,,2013-03-03 19:02:00,
2013-03-03 14:11:00,26.0,23.0,-100.00,SW,221,6.0,12.0,81,1.14,,,-99.99,,2013-03-03 19:11:00,
2013-03-03 14:22:00,27.0,23.0,-100.00,SSW,197,3.0,12.0,81,4.53,,,-99.99,,2013-03-03 19:22:00,
2013-03-03 14:32:00,27.0,23.0,-100.00,WSW,237,2.0,12.0,81,1.14,,,-99.99,,2013-03-03 19:32:00,
2013-03-03 14:42:00,27.0,21.0,-100.00,West,264,7.0,12.0,76,1.14,,,-99.99,,2013-03-03 19:42:00,
2013-03-03 14:52:00,27.0,21.0,-100.00,SW,225,6.0,12.0,75,2.83,,,-99.99,,2013-03-03 19:52:00,
2013-03-03 15:01:00,26.0,19.0,-100.00,WSW,238,7.0,12.0,73,0.00,,,-99.99,,2013-03-03 20:01:00,
2013-03-03 15:11:00,27.0,21.0,-100.00,WSW,238,6.0,12.0,73,0.00,,,-99.99,,2013-03-03 20:11:00,
2013-03-03 15:21:00,27.0,19.0,-100.00,SSW,200,7.0,12.0,71,0.00,,,-99.99,,2013-03-03 20:21:00,
2013-03-03 15:32:00,26.0,19.0,-100.00,SSW,199,9.0,12.0,71,0.00,,,-99.99,,2013-03-03 20:32:00,
2013-03-03 15:42:00,27.0,19.0,-100.00,SW,221,7.0,12.0,71,0.00,,,-99.99,,2013-03-03 20:42:00,
2013-03-03 15:52:00,27.0,19.0,-100.00,SSW,199,5.0,12.0,68,0.00,,,-99.99,,2013-03-03 20:52:00,
2013-03-03 16:02:00,27.0,19.0,-100.00,West,261,6.0,12.0,69,0.00,,,-99.99,,2013-03-03 21:02:00,
2013-03-03 16:12:00,29.0,19.0,-100.00,WNW,296,7.0,12.0,68,0.00,,,-99.99,,2013-03-03 21:12:00,
2013-03-03 16:22:00,27.0,18.0,-100.00,SSW,207,6.0,12.0,68,0.00,,,-99.99,,2013-03-03 21:22:00,
2013-03-03 16:32:00,26.0,19.0,-100.00,WSW,241,6.0,12.0,71,0.00,,,-99.99,,2013-03-03 21:32:00,
2013-03-03 16:42:00,27.0,19.0,-100.00,WSW,254,5.0,12.0,72,0.00,,,-99.99,,2013-03-03 21:42:00,
2013-03-03 16:52:00,26.0,21.0,-100.00,WSW,252,3.0,12.0,75,0.00,,,-99.99,,2013-03-03 21:52:00,
2013-03-03 17:02:00,26.0,21.0,-100.00,WSW,247,4.0,12.0,76,0.00,,,-99.99,,2013-03-03 22:02:00,
2013-03-03 17:11:00,26.0,21.0,-100.00,WSW,249,5.0,12.0,76,0.00,,,-99.99,,2013-03-03 22:11:00,
2013-03-03 17:22:00,26.0,21.0,-100.00,WSW,242,3.0,12.0,76,0.00,,,-99.99,,2013-03-03 22:22:00,
2013-03-03 17:32:00,26.0,21.0,-100.00,SSW,200,2.0,12.0,75,0.00,,,-99.99,,2013-03-03 22:32:00,
2013-03-03 17:42:00,26.0,19.0,-100.00,SW,228,4.0,12.0,73,0.00,,,-99.99,,2013-03-03 22:42:00,
2013-03-03 17:52:00,26.0,19.0,-100.00,SSW,197,4.0,12.0,72,0.00,,,-99.99,,2013-03-03 22:52:00,
2013-03-03 18:01:00,26.0,19.0,-100.00,West,265,6.0,12.0,72,0.00,,,-99.99,,2013-03-03 23:01:00,
2013-03-03 18:11:00,26.0,18.0,-100.00,WSW,244,6.0,12.0,71,0.00,,,-99.99,,2013-03-03 23:11:00,
2013-03-03 18:21:00,26.0,18.0,-100.00,West,269,6.0,12.0,71,0.00,,,-99.99,,2013-03-03 23:21:00,
2013-03-03 18:32:00,25.0,18.0,-100.00,WNW,283,6.0,12.0,71,0.00,,,-99.99,,2013-03-03 23:32:00,
2013-03-03 18:42:00,27.0,19.0,-100.00,WSW,249,5.0,12.0,71,0.00,,,-99.99,,2013-03-03 23:42:00,
2013-03-03 18:52:00,25.0,18.0,-100.00,SW,225,4.0,12.0,69,0.00,,,-99.99,,2013-03-03 23:52:00,
2013-03-03 19:02:00,25.0,18.0,-100.00,SW,230,6.0,12.0,71,0.00,,,-99.99,,2013-03-04 00:02:00,
2013-03-03 19:11:00,25.0,18.0,-100.00,West,261,4.0,12.0,71,0.00,,,-99.99,,2013-03-04 00:11:00,
2013-03-03 19:21:00,24.0,16.0,-100.00,SW,227,4.0,12.0,69,0.00,,,-99.99,,2013-03-04 00:21:00,
2013-03-03 19:32:00,24.0,16.0,-100.00,West,265,2.0,12.0,69,0.00,,,-99.99,,2013-03-04 00:32:00,
2013-03-03 19:42:00,28.0,19.0,-100.00,NW,314,3.0,12.0,69,0.00,,,-99.99,,2013-03-04 00:42:00,
2013-03-03 19:52:00,25.0,18.0,-100.00,SW,234,3.0,12.0,68,0.00,,,-99.99,,2013-03-04 00:52:00,
2013-03-03 20:01:00,24.0,16.0,-100.00,West,273,5.0,12.0,68,0.00,,,-99.99,,2013-03-04 01:01:00,
2013-03-03 20:12:00,24.0,16.0,-100.00,WSW,242,2.0,12.0,68,0.00,,,-99.99,,2013-03-04 01:12:00,
2013-03-03 20:22:00,24.0,16.0,-100.00,WSW,244,2.0,12.0,69,0.00,,,-99.99,,2013-03-04 01:22:00,
2013-03-03 20:32:00,25.0,18.0,-100.00,WSW,255,4.0,12.0,69,0.00,,,-99.99,,2013-03-04 01:32:00,
2013-03-03 20:42:00,23.0,16.0,-100.00,NNW,341,2.0,12.0,71,0.00,,,-99.99,,2013-03-04 01:42:00,
2013-03-03 20:52:00,23.0,16.0,-100.00,SW,223,2.0,12.0,71,0.00,,,-99.99,,2013-03-04 01:52:00,
2013-03-03 21:01:00,24.0,18.0,-100.00,West,275,5.0,12.0,72,0.00,,,-99.99,,2013-03-04 02:01:00,
2013-03-03 21:11:00,25.0,18.0,-100.00,WSW,254,4.0,12.0,72,0.00,,,-99.99,,2013-03-04 02:11:00,
2013-03-03 21:22:00,24.0,18.0,-100.00,WSW,251,4.0,12.0,72,0.00,,,-99.99,,2013-03-04 02:22:00,
2013-03-03 21:32:00,24.0,18.0,-100.00,West,268,3.0,12.0,73,0.00,,,-99.99,,2013-03-04 02:32:00,
2013-03-03 21:42:00,24.0,18.0,-100.00,West,272,2.0,12.0,73,0.00,,,-99.99,,2013-03-04 02:42:00,
2013-03-03 21:52:00,24.0,18.0,-100.00,West,262,3.0,12.0,73,0.00,,,-99.99,,2013-03-04 02:52:00,
2013-03-03 22:02:00,24.0,19.0,-100.00,SSW,194,4.0,12.0,75,0.00,,,-99.99,,2013-03-04 03:02:00,
2013-03-03 22:11:00,28.0,23.0,-100.00,WNW,292,3.0,12.0,76,0.00,,,-99.99,,2013-03-04 03:11:00,
2013-03-03 22:22:00,23.0,18.0,-100.00,WSW,238,2.0,12.0,76,0.00,,,-99.99,,2013-03-04 03:22:00,
2013-03-03 22:32:00,25.0,19.0,-100.00,WSW,256,5.0,12.0,76,0.00,,,-99.99,,2013-03-04 03:32:00,
2013-03-03 22:42:00,24.0,18.0,-100.00,WSW,242,4.0,12.0,76,0.00,,,-99.99,,2013-03-04 03:42:00,
2013-03-03 22:52:00,23.0,18.0,-100.00,WNW,295,5.0,12.0,75,0.00,,,-99.99,,2013-03-04 03:52:00,
2013-03-03 23:01:00,24.0,19.0,-100.00,SSW,207,4.0,12.0,76,0.00,,,-99.99,,2013-03-04 04:01:00,
2013-03-03 23:11:00,23.0,18.0,-100.00,NW,312,3.0,12.0,75,0.00,,,-99.99,,2013-03-04 04:11:00,
2013-03-03 23:22:00,25.0,19.0,-100.00,SW,220,4.0,12.0,76,0.00,,,-99.99,,2013-03-04 04:22:00,
2013-03-03 23:32:00,23.0,18.0,-100.00,WSW,258,4.0,12.0,76,1.14,,,-99.99,,2013-03-04 04:32:00,
2013-03-03 23:42:00,23.0,18.0,-100.00,SW,227,4.0,12.0,76,1.14,,,-99.99,,2013-03-04 04:42:00,
2013-03-03 23:52:00,23.0,18.0,-100.00,West,265,3.0,12.0,76,7.36,,,-99.99,,2013-03-04 04:52:00,